SCP
0 0 0 0 0 0 0 0 0 1 1 1 1 1 2 3 4 4 5 5 5 5 6 8 10 11 11 9 7 6 5 4 3 3 2 2 2 2 2 2 2 2 2 2
0 0 0 0 0 0 1 1 1 1 1 1 1 1 2 4 5 5 5 6 6 6 6 8 11 14 12 9 7 6 6 5 4 3 3 2 2 2 2 2 2 2 2 2
0 0 0 1 0 0 1 1 1 1 1 1 1 2 2 4 5 6 7 9 9 6 6 8 11 14 12 10 7 6 6 5 5 5 4 4 3 3 3 3 3 2 2 2
0 0 1 1 1 0 1 1 1 1 2 2 2 3 3 3 4 6 9 11 9 7 6 8 11 13 12 10 8 6 5 6 6 6 6 5 4 4 4 4 4 3 3 2
0 0 1 1 1 1 1 2 2 2 3 3 4 4 3 3 4 6 9 10 9 8 9 12 16 17 16 12 9 6 5 5 6 7 6 6 5 5 5 5 5 4 4 3
0 1 1 1 1 1 2 3 3 3 3 4 4 5 4 4 5 7 8 9 10 12 14 17 20 20 18 14 10 6 5 6 7 7 7 6 6 5 5 5 5 5 5 5
1 1 1 1 2 2 2 3 4 4 3 3 4 4 4 5 7 9 11 13 14 17 18 19 20 19 16 13 9 6 6 7 8 8 7 7 7 7 6 6 7 7 7 7
1 1 1 1 2 2 2 3 4 4 3 3 4 4 5 7 10 14 16 17 18 19 18 17 16 14 12 9 7 7 9 9 9 9 8 8 8 8 8 8 8 7 7 7
1 1 1 2 3 4 4 5 6 6 6 7 8 11 13 17 21 23 22 19 18 17 15 14 13 11 9 7 8 10 12 10 10 9 8 9 9 9 8 8 7 6 5 5
3 3 3 4 6 7 7 7 8 9 11 14 17 19 22 25 27 27 25 20 16 14 13 13 12 11 10 9 10 14 14 11 10 9 9 9 10 9 8 6 5 4 3 3
8 7 7 8 9 8 7 6 7 10 13 17 19 18 18 20 22 24 23 19 15 13 13 14 14 14 12 10 13 17 16 12 11 10 10 11 10 9 7 5 4 3 3 3
11 11 12 13 11 8 6 5 5 6 9 13 13 12 11 12 15 20 21 18 15 13 14 15 15 14 12 12 15 17 15 13 12 12 11 11 10 7 5 4 2 2 2 2
7 9 11 12 11 9 7 5 4 5 6 9 9 9 9 12 16 20 20 16 13 12 12 13 14 13 12 13 16 16 14 13 14 14 12 11 8 6 4 2 1 1 1 1
2 4 6 8 9 10 8 5 4 4 6 8 9 10 11 14 17 19 18 14 11 10 11 11 11 11 12 13 15 14 12 13 15 15 12 9 7 5 4 2 1 1 0 0
1 2 3 5 7 10 9 6 4 5 6 9 11 13 14 16 17 16 15 13 12 12 11 10 9 10 11 12 12 11 11 12 14 14 11 7 5 4 3 3 2 1 0 0
1 2 2 3 5 9 10 8 7 7 8 10 12 13 14 15 14 13 13 13 13 11 10 8 7 8 8 9 9 9 9 10 12 12 9 6 4 4 3 3 2 2 1 0
1 2 2 2 3 6 8 9 9 10 10 11 12 12 11 11 10 10 11 11 10 8 7 6 5 5 6 7 7 7 8 9 9 9 7 4 3 3 3 3 2 2 1 0
1 1 2 2 2 3 4 6 8 10 10 10 10 10 8 8 8 8 8 7 6 5 4 3 4 4 4 5 6 6 6 7 6 6 5 3 2 2 2 2 2 1 1 0
1 1 1 1 1 1 2 3 5 7 8 8 7 7 7 7 7 8 7 6 4 3 3 3 3 3 3 4 4 4 5 5 4 4 3 1 1 1 1 2 2 1 1 1
1 1 1 1 1 1 1 2 3 4 4 4 4 5 6 7 7 8 8 6 5 4 4 4 4 4 4 4 4 4 3 3 3 3 2 1 0 1 1 1 1 1 1 1
2 2 1 1 0 0 1 1 2 2 2 2 2 4 6 8 8 8 9 8 6 5 5 5 5 4 4 4 4 4 3 3 3 2 1 1 0 0 1 1 1 1 1 1
2 2 1 1 1 1 1 1 2 2 2 2 3 4 7 9 10 10 10 9 8 7 6 6 5 4 4 4 4 4 3 3 2 2 1 0 0 0 0 0 0 0 1 1
2 2 1 1 1 1 1 1 2 3 4 4 5 5 7 8 9 9 9 8 7 6 6 4 3 3 4 4 3 3 2 2 2 1 1 0 0 0 0 0 0 0 0 0
2 2 2 2 2 2 1 1 2 4 5 5 4 5 5 5 5 5 4 4 4 4 3 2 2 2 3 3 2 2 2 2 1 1 1 0 0 0 0 0 0 0 0 0
1 1 1 2 2 2 2 1 1 3 4 4 3 3 3 3 3 2 2 1 1 2 2 1 1 2 2 2 2 2 2 1 1 1 1 0 0 0 0 0 0 0 0 0
1 1 1 2 2 2 2 2 1 2 2 2 2 2 2 2 2 2 2 1 1 1 1 1 1 2 2 2 2 1 1 1 1 1 1 0 0 0 0 0 0 0 0 0
1 1 1 2 2 2 2 2 1 1 1 1 1 1 1 1 1 2 2 2 2 1 1 1 1 1 1 1 1 1 1 1 1 1 1 0 0 0 0 0 0 0 0 0
Wind_Speed
3 3 2 3 5 3 1 5 7 7 7 7 6 7 6 6 7 7 7 8 9 9 8 8 8 8 9 9 8 9 9 8 8 7 7 6 6 6 5 5 6 5 4 3
3 3 4 6 6 4 2 3 4 4 4 4 4 4 4 5 7 7 7 8 9 9 9 9 9 9 9 8 9 9 9 9 8 8 7 7 6 6 6 5 5 5 4 4
2 3 3 5 6 4 2 1 5 5 5 3 3 5 6 6 7 8 8 8 9 10 9 9 9 9 10 9 8 8 8 8 8 8 8 7 7 6 6 5 5 5 4 4
1 2 4 9 5 2 2 2 1 3 4 5 5 6 6 6 7 7 7 8 8 8 8 7 7 7 7 7 8 8 7 7 7 8 8 8 8 7 7 5 5 5 4 4
3 2 6 6 4 2 3 3 2 3 4 3 3 4 1 2 5 6 6 6 6 6 7 6 6 7 7 7 7 8 8 8 8 8 8 8 8 7 6 6 5 5 5 5
3 3 5 6 5 2 5 2 4 1 4 4 4 3 3 2 4 5 5 4 4 5 5 6 5 7 7 7 7 8 8 8 8 8 9 9 8 7 5 5 5 5 4 4
4 4 7 7 5 3 3 6 3 1 2 3 3 5 4 3 3 4 6 5 6 6 5 5 5 7 8 7 7 7 6 7 7 7 7 7 7 6 6 6 5 4 4 3
4 4 8 4 2 2 5 3 1 1 1 3 3 3 3 3 4 5 5 5 6 6 5 4 5 6 7 7 6 6 6 6 6 6 6 6 6 6 6 6 6 5 4 3
7 7 6 2 3 3 3 2 1 1 2 5 5 3 2 2 3 4 5 5 5 6 5 4 5 6 6 5 6 6 6 6 6 6 5 6 6 6 6 5 5 5 4 4
0 3 3 2 1 1 2 2 1 1 2 5 5 4 3 2 2 2 3 4 4 5 5 4 4 4 5 5 6 7 7 6 6 6 5 4 4 4 5 5 5 5 5 4
2 4 3 4 3 1 2 3 3 2 2 3 5 5 4 3 2 2 3 3 4 5 4 4 4 4 4 6 7 6 6 5 5 5 6 5 3 3 4 4 6 6 5 5
6 6 3 5 4 1 3 2 2 2 1 0 2 3 4 4 3 3 3 3 3 4 4 3 3 4 4 6 7 7 5 5 4 4 4 4 4 2 2 1 3 5 6 6
6 5 3 4 2 1 2 1 1 1 1 1 1 2 3 3 3 3 3 4 4 4 4 3 3 3 4 5 7 7 7 6 5 5 5 5 5 5 3 1 2 1 4 7
3 0 2 2 2 1 0 0 0 0 0 1 1 2 3 3 3 3 4 4 4 3 3 3 3 3 4 5 6 6 6 6 6 5 6 6 5 5 4 4 3 0 1 5
4 3 4 3 2 1 1 1 1 1 1 1 1 2 3 3 4 4 3 3 4 3 3 3 3 3 3 4 5 6 5 5 5 5 5 5 5 4 4 5 4 3 2 1
3 2 1 2 2 2 1 1 2 2 2 2 1 2 2 3 3 2 2 4 4 4 4 3 3 4 4 5 5 4 5 7 6 5 5 5 5 5 5 5 4 4 4 4
2 2 2 2 2 2 1 2 2 2 1 1 2 2 2 3 2 2 2 2 3 3 3 3 4 4 4 5 5 4 4 5 6 5 5 5 5 6 5 5 5 5 4 5
4 4 4 4 4 2 1 0 1 1 1 2 1 2 2 3 3 2 3 3 2 1 2 3 3 3 3 3 3 3 4 4 4 4 4 4 4 5 5 5 5 5 3 4
3 3 2 2 3 3 1 1 1 1 1 1 1 1 1 2 2 2 2 3 3 2 3 2 3 3 3 3 4 3 3 4 4 3 3 5 4 4 4 4 5 5 5 4
3 3 3 3 2 2 1 2 2 2 1 1 1 2 1 0 1 2 3 2 3 3 3 3 3 2 2 3 3 3 3 3 3 3 3 3 4 4 4 5 5 5 4 5
3 3 3 3 2 1 1 1 1 1 0 1 2 1 1 1 1 2 2 1 2 2 3 3 3 2 2 3 3 2 3 3 3 3 3 4 4 4 4 4 4 4 4 4
2 2 2 1 1 1 1 1 1 0 0 0 1 1 0 1 0 0 2 2 3 3 2 2 2 3 3 3 2 2 3 3 3 2 3 4 4 4 4 4 4 4 4 4
2 1 1 1 0 1 1 1 1 0 0 0 1 2 2 2 2 2 2 2 2 3 2 2 3 4 4 2 2 2 3 3 3 3 3 4 4 4 4 4 4 4 4 4
0 0 0 1 1 0 1 1 1 1 1 1 1 2 2 1 1 2 2 3 3 3 2 2 4 4 4 2 2 2 2 3 3 3 3 3 3 3 4 4 4 4 4 5
1 1 1 1 1 2 2 2 1 1 1 1 1 1 1 1 2 2 1 2 2 3 2 2 3 4 2 2 2 2 2 3 3 3 3 3 3 3 3 4 4 4 4 4
1 1 1 2 2 2 2 1 1 1 1 0 1 1 1 1 0 0 0 1 2 2 1 1 2 2 2 2 2 2 2 2 2 2 3 3 3 3 3 3 4 3 3 3
2 2 1 2 2 1 1 1 1 1 1 2 1 1 1 0 0 0 0 1 1 1 1 1 1 1 1 2 2 1 1 2 2 2 2 2 2 3 3 4 3 3 3 3
Wind_Direction
218 256 304 297 289 290 190 188 183 212 196 210 196 185 177 161 153 148 148 149 153 161 164 161 160 164 167 170 169 169 166 170 176 173 164 158 155 155 152 148 151 147 139 134
345 345 347 311 294 284 257 207 183 171 215 214 190 159 146 150 151 159 161 162 161 161 161 164 165 166 168 173 173 168 170 177 173 165 161 161 160 156 152 152 150 141 142 138
299 315 17 294 261 251 253 227 161 188 220 188 156 173 175 168 158 162 166 165 166 168 169 171 173 170 172 171 164 164 172 174 169 165 164 167 163 158 162 163 153 147 146 139
129 58 226 242 256 191 158 267 188 173 181 170 181 188 179 166 161 163 167 166 171 172 172 172 169 168 163 157 157 159 163 166 168 168 170 169 167 172 174 165 158 157 157 157
130 195 269 282 276 198 145 306 319 141 159 160 134 96 17 175 146 152 158 162 168 167 163 163 165 162 152 158 160 162 167 170 173 170 172 172 174 177 173 163 160 163 161 161
140 168 230 252 274 257 109 289 305 138 149 141 110 116 233 208 139 130 132 141 147 143 140 151 163 156 153 158 161 172 177 178 177 174 172 175 178 177 166 160 167 163 163 170
176 210 253 260 295 21 132 219 269 168 147 129 148 185 199 159 134 131 130 136 138 137 146 162 161 155 158 161 175 182 171 164 169 171 170 169 167 163 154 153 154 156 160 170
161 196 247 272 39 146 211 223 183 114 130 118 127 125 131 130 128 125 129 134 138 142 152 158 158 160 165 177 177 159 150 154 159 163 164 159 157 160 157 155 156 159 156 167
187 212 239 257 170 187 160 135 190 179 174 128 121 126 119 114 115 130 141 145 146 148 153 159 165 167 169 178 160 151 151 160 161 158 159 158 158 161 160 161 167 175 174 184
286 279 282 297 48 68 108 110 130 134 142 121 125 130 134 135 125 132 149 149 147 144 153 170 175 171 173 168 158 154 159 163 161 159 158 157 157 162 169 175 177 180 183 188
268 277 332 346 357 9 39 65 63 57 95 137 134 145 163 173 171 164 156 145 142 149 163 177 171 174 172 161 151 151 158 161 161 167 166 159 155 163 176 191 189 184 191 185
235 238 215 262 287 3 68 51 48 57 25 5 155 165 168 179 181 168 161 144 141 145 155 166 166 174 172 163 156 155 162 167 167 167 164 161 153 117 56 137 180 191 192 184
229 239 223 248 300 35 74 53 48 141 172 215 259 178 167 183 181 173 162 150 163 171 169 167 172 186 185 169 163 168 173 175 172 169 166 167 166 165 161 53 70 145 192 190
240 198 293 277 263 291 35 106 353 16 150 182 208 187 176 176 174 175 180 179 174 163 161 166 179 204 198 175 171 178 179 181 178 177 174 172 172 176 174 171 177 233 238 196
262 227 224 222 225 238 173 116 77 319 304 296 241 184 186 183 183 191 190 175 157 156 169 172 187 218 205 184 181 186 186 185 181 177 175 174 171 172 177 179 179 176 179 206
243 265 236 193 205 233 210 183 190 226 237 241 230 194 187 175 171 174 172 158 159 180 192 188 200 213 198 186 187 189 192 188 180 173 172 174 176 180 183 183 184 183 188 193
199 254 257 246 232 226 208 198 198 195 174 203 212 188 150 134 132 151 186 184 173 184 193 196 212 215 195 181 176 180 178 179 177 172 177 181 184 187 186 183 188 194 200 199
211 222 223 212 203 177 148 103 131 153 169 190 167 132 131 139 159 187 195 172 155 179 216 206 196 185 179 178 174 170 168 172 175 176 177 180 183 181 181 185 187 193 196 190
210 216 217 179 159 140 152 174 132 106 96 109 124 146 163 177 181 189 166 145 156 196 232 209 180 161 167 180 169 163 170 171 174 177 171 177 184 184 182 184 188 193 192 186
108 108 106 107 111 121 132 133 116 96 114 140 128 91 62 297 220 176 157 173 203 205 202 186 170 168 179 178 168 169 171 176 185 188 179 178 186 191 189 189 190 194 196 197
75 81 88 96 91 80 65 73 105 128 228 146 136 151 199 259 230 156 145 193 261 217 185 183 180 184 184 183 178 180 178 178 183 192 189 191 193 194 192 192 193 194 195 198
63 66 73 73 68 30 19 56 92 121 200 165 148 145 207 287 280 227 207 207 218 202 180 180 186 190 186 181 180 181 181 178 176 184 191 192 192 195 196 194 195 199 198 195
58 43 37 23 354 312 359 12 0 54 175 235 216 206 207 220 210 184 245 260 210 188 175 182 183 180 180 170 173 181 185 185 187 192 201 198 196 197 197 197 198 198 198 198
71 15 347 312 335 20 311 285 287 298 268 261 252 230 201 201 259 241 213 210 200 187 178 181 181 179 170 165 170 182 191 196 199 201 202 200 199 199 198 195 197 199 200 201
248 291 313 291 278 251 246 251 275 294 306 301 293 284 261 200 212 249 230 190 175 169 170 177 178 177 173 172 179 193 198 203 202 195 191 191 195 197 198 198 200 202 203 203
272 280 270 249 239 238 238 218 217 250 231 260 296 308 305 301 180 162 194 190 169 167 160 169 179 183 187 187 190 198 199 198 196 197 201 197 197 201 203 203 202 202 205 206
297 299 304 311 301 271 223 192 202 230 221 206 228 254 258 248 184 174 134 121 127 125 127 154 170 192 191 179 187 193 191 187 188 194 204 209 206 207 207 205 201 199 201 200